Terug naar catalogus

GORIZONT 22

ActiefCommunicatieGEO
NORAD 20953·PAYLOAD·🇷🇺 Russia

Gelanceerd Nov 23, 1990 vanaf Baikonur Cosmodrome

Loading…

TLE

VersSource: Space-Track

Epoch: Sep 14, 2026, 14:25 UTC

1 20953U 90102A   26257.60118779 -.00000353  00000-0  00000-0 0  9994
2 20953  12.6439 336.6051 0004586 344.0097  21.1532  1.00227101131272

Volg GORIZONT 22 in realtime met AllMySat

Download on the App Store